Wind_Speed
28 26 26 26 27 26 24 23 22 21 21 21 22 22 21 21 21 21 19 17 16 14 14 14 14 14 15 16 17 19 20 22 22 22 22 21 19 19 15 11 7 5 8 11 11 8 5 2 6 9 11 10 8 6 5 4 4 4 2 3 5 7 9
29 27 27 27 26 26 25 24 23 23 23 22 22 22 22 21 20 19 18 17 15 15 14 14 14 14 15 17 17 19 20 21 21 20 21 21 20 19 17 13 9 7 10 10 11 10 4 3 4 4 9 10 8 8 6 4 4 4 2 2 6 8 10
28 27 27 27 27 26 25 25 24 25 24 23 23 23 22 21 20 18 17 17 16 16 15 15 15 15 16 16 17 18 19 21 22 21 20 19 19 19 17 16 13 12 11 8 10 10 4 4 3 3 9 10 8 8 8 6 4 2 1 6 9 9 10
29 28 27 27 27 26 26 26 26 26 25 25 24 23 22 21 20 19 18 17 16 16 16 16 16 17 17 17 17 17 18 19 21 22 21 19 19 18 17 17 17 16 14 11 14 15 9 4 4 4 8 11 8 6 5 5 3 6 9 11 10 9 10
32 30 29 29 29 28 28 27 27 27 26 25 24 23 23 22 20 20 18 17 16 16 17 17 16 16 17 18 18 18 18 19 21 22 22 20 19 19 18 17 18 18 17 15 15 18 15 10 8 7 7 9 6 4 9 11 11 12 12 10 9 10 10
33 32 31 31 31 31 30 30 29 29 28 27 26 25 24 23 22 21 19 18 17 17 18 17 16 17 18 18 18 18 18 19 20 21 22 21 20 20 20 19 17 17 17 13 12 16 16 13 11 9 7 7 6 8 13 14 14 12 10 10 9 9 10
33 33 33 32 32 32 32 33 32 32 32 30 29 27 25 24 22 21 19 18 17 18 19 19 18 19 19 19 18 17 17 18 19 19 20 19 19 18 19 19 17 16 14 12 11 14 14 13 15 15 10 5 7 10 9 9 11 8 8 9 9 9 9
34 33 33 33 33 33 33 34 34 33 32 31 29 27 25 24 22 20 19 18 18 19 20 19 19 20 20 19 19 18 17 17 18 18 17 17 17 17 17 17 16 14 12 11 11 11 12 12 15 19 18 9 5 5 4 6 7 5 6 7 8 9 9
34 33 33 32 33 34 34 34 34 32 31 30 28 26 25 23 21 20 18 18 19 20 20 19 19 20 19 19 19 18 17 18 18 17 17 16 16 16 16 15 15 13 11 10 10 10 11 12 12 18 22 18 11 3 2 3 3 3 5 5 5 8 8
34 34 33 33 33 33 33 33 33 32 30 29 27 25 23 21 20 19 18 19 20 19 19 18 18 19 19 18 19 18 18 18 18 17 17 16 16 16 15 14 13 12 11 10 10 9 10 11 12 15 17 19 17 10 3 3 3 2 4 4 5 7 7
35 34 34 33 33 33 32 32 32 32 30 28 27 25 23 21 20 19 19 19 20 20 19 18 18 18 18 18 18 18 19 19 19 18 17 17 17 16 15 14 13 12 11 10 10 9 9 10 11 13 13 14 16 13 9 6 2 2 5 5 6 6 6
34 34 33 33 33 34 33 33 33 32 30 28 26 24 23 21 20 20 20 20 20 20 18 18 18 17 17 18 19 19 19 19 19 19 18 17 17 17 16 15 14 13 12 12 11 10 9 9 9 11 11 10 10 11 13 10 4 3 6 6 7 7 6
34 34 34 34 34 34 34 33 33 32 30 28 26 24 23 22 21 21 21 21 21 20 19 19 18 17 18 19 19 19 20 20 20 19 19 18 17 17 17 17 16 15 14 13 12 11 10 9 9 9 9 10 10 8 10 11 7 6 7 6 7 7 6
34 34 34 34 34 33 33 33 33 32 30 28 26 25 23 22 22 22 21 22 21 21 21 21 20 19 19 19 19 20 21 21 20 20 19 19 18 18 18 18 17 16 15 14 13 13 12 10 9 9 9 10 11 10 9 12 12 9 7 7 7 6 5
33 33 33 33 33 33 33 33 33 31 30 28 27 25 24 24 23 23 22 22 22 22 22 22 21 21 21 21 21 22 22 22 21 21 20 19 19 18 19 19 19 18 17 16 15 13 12 11 9 9 10 10 12 12 10 14 14 10 7 7 7 5 4
34 33 33 33 33 33 33 33 33 32 30 29 27 26 25 25 24 24 23 23 23 23 23 23 23 22 22 22 23 23 23 23 22 21 21 21 20 20 20 21 20 19 18 17 16 14 13 11 9 9 10 9 10 11 10 12 12 10 8 7 6 4 5
34 34 34 34 33 33 33 33 32 32 31 29 28 27 26 25 25 25 24 24 24 24 24 24 24 23 23 23 23 24 24 23 22 22 22 21 21 22 22 22 21 19 17 17 16 15 13 11 9 9 10 8 8 9 8 8 9 9 9 7 5 5 5
35 35 35 34 33 33 33 33 32 31 31 30 29 28 27 27 26 26 26 26 25 25 25 24 24 24 23 23 23 24 24 23 23 22 21 21 22 22 22 21 20 19 17 17 17 16 13 12 10 9 9 8 7 7 7 7 7 7 8 8 6 5 6
35 35 35 34 33 33 33 33 32 32 31 30 30 29 29 28 27 27 27 26 26 25 25 25 24 24 23 23 24 24 24 23 23 22 21 21 21 21 20 19 19 18 17 16 16 15 13 11 10 9 9 8 6 6 6 6 6 5 6 8 7 6 7
34 34 34 34 33 33 33 33 32 32 31 31 31 31 30 29 28 27 27 26 26 25 25 25 24 24 24 24 24 24 23 23 22 22 21 21 20 19 18 18 17 16 16 15 14 14 12 11 9 8 8 7 6 6 7 6 5 6 7 8 8 8 7
32 33 33 32 33 33 33 33 32 32 31 31 31 31 31 30 29 28 27 26 25 25 26 25 25 25 24 24 24 23 23 23 22 22 21 19 18 17 17 16 16 15 14 13 12 11 11 10 8 7 6 6 7 7 7 7 8 9 9 9 9 8 7
31 31 32 32 32 33 33 33 33 32 32 31 31 31 31 30 29 28 27 26 26 26 26 26 26 25 25 24 24 23 23 22 22 22 20 19 17 16 16 16 15 13 12 10 9 8 7 7 6 5 6 7 8 8 10 10 10 10 10 9 9 7 6
31 31 32 32 32 33 33 33 33 33 32 31 32 32 30 29 29 28 28 27 26 27 27 27 26 25 24 24 23 23 22 22 22 21 20 20 18 16 15 15 14 12 10 8 6 5 5 6 4 4 5 7 8 10 11 12 11 10 10 9 8 6 5
32 32 33 33 33 33 33 33 33 33 33 32 32 32 31 30 29 28 27 27 27 28 28 27 25 24 23 23 23 23 23 23 23 22 21 20 19 17 16 16 14 11 10 8 7 7 8 8 7 6 8 9 9 9 10 10 9 8 8 7 6 5 5
33 33 34 33 33 34 34 33 33 33 33 32 32 32 31 30 29 28 27 28 28 28 28 26 25 24 23 23 23 23 24 24 24 23 22 21 20 19 18 17 14 13 12 12 13 14 14 14 13 13 13 13 12 10 8 7 6 5 4 4 4 5 5
34 34 34 34 33 33 33 34 34 33 33 32 32 32 31 30 29 28 28 28 28 28 27 25 25 24 23 24 24 24 24 25 25 24 23 22 22 21 20 19 18 17 17 17 16 17 17 17 17 16 15 14 13 11 8 7 6 4 4 2 3 4 4
34 34 34 34 33 33 33 34 34 33 33 32 32 32 31 30 29 29 28 28 28 27 26 25 25 25 24 24 24 24 24 25 25 25 24 24 24 24 23 22 21 20 19 19 19 18 18 18 18 17 16 14 13 11 8 7 6 6 6 4 2 4 3
34 34 34 33 33 34 34 33 33 32 33 33 33 32 31 30 30 29 28 28 28 27 26 26 25 25 25 24 24 24 24 25 25 25 25 26 26 25 24 22 20 19 20 21 21 20 20 20 19 17 15 13 12 10 8 7 7 7 6 5 3 3 1
35 34 34 33 33 34 34 33 33 33 33 33 33 32 31 30 30 29 28 28 28 28 27 26 26 26 25 25 24 25 25 26 26 26 28 28 26 24 22 20 19 20 21 21 21 22 21 20 18 16 14 12 11 9 8 7 7 7 6 5 3 2 1
35 35 35 34 34 33 34 33 33 33 32 32 31 31 30 30 30 29 29 29 29 29 28 27 27 26 26 25 25 27 28 27 27 28 29 28 25 23 21 21 21 21 21 22 22 22 21 19 17 15 13 12 10 9 8 8 8 7 6 6 4 3 3
36 35 35 36 35 34 34 34 34 34 33 32 31 31 30 30 29 29 29 30 31 31 29 28 27 27 27 26 26 28 29 29 28 29 29 27 24 23 22 22 23 21 21 22 23 21 19 18 16 16 14 11 10 10 10 10 10 9 7 6 5 5 5
38 37 36 36 36 36 36 35 35 35 34 33 31 30 30 30 30 30 31 31 31 31 30 28 28 28 28 27 28 29 30 30 29 29 29 27 25 24 23 23 23 21 20 21 21 18 17 16 16 15 12 10 10 11 12 12 12 10 9 7 7 6 5
39 38 37 36 37 37 36 35 34 35 34 32 31 30 31 32 31 32 32 31 31 31 30 29 28 29 29 28 29 30 31 31 30 29 28 28 26 25 24 24 23 22 21 21 19 15 15 16 16 14 12 11 11 11 11 12 13 12 10 9 8 7 6
38 39 40 39 36 35 36 36 36 36 34 31 30 30 32 31 30 30 31 31 31 31 31 29 28 29 30 29 30 32 32 32 31 29 28 29 27 26 26 24 23 23 23 23 20 15 14 16 16 16 15 13 11 10 10 12 13 13 12 11 10 9 7
39 39 37 36 34 33 34 35 35 35 33 31 30 30 31 30 28 28 29 30 30 30 30 29 28 29 31 31 31 32 32 32 31 28 28 29 28 28 27 24 23 24 24 25 23 19 16 15 16 18 18 16 13 12 11 11 13 13 14 13 12 11 10
36 35 33 33 34 33 32 32 32 32 32 31 30 28 28 28 27 26 27 27 27 27 28 29 27 28 31 32 31 31 31 32 30 27 27 29 28 29 29 25 22 24 26 26 25 23 19 18 18 18 18 17 16 14 12 12 13 14 14 13 13 12 11
33 31 31 31 31 31 31 30 29 28 28 28 27 25 26 26 26 25 24 24 23 24 26 28 27 28 30 31 31 31 32 31 29 26 27 28 28 28 29 25 21 23 27 26 25 23 21 20 19 18 18 18 18 16 14 13 13 14 14 14 14 13 12
Wind_Direction
194 194 194 198 203 206 208 209 208 204 203 204 206 206 204 202 200 200 203 205 207 209 213 216 214 214 214 213 211 209 208 207 208 208 202 196 195 198 202 211 231 234 191 185 187 173 139 184 216 215 213 208 207 204 176 162 166 167 146 72 77 73 62
197 198 196 198 202 204 205 204 202 201 200 201 204 206 205 205 206 207 208 209 212 218 225 229 227 223 218 216 213 211 210 212 216 219 215 208 206 205 205 207 211 196 191 197 196 185 143 144 192 216 204 202 214 203 175 165 182 208 242 89 96 81 63
194 195 194 197 200 201 201 199 198 198 197 196 199 202 204 206 208 211 213 213 218 225 230 233 235 233 224 217 215 214 214 217 219 220 222 221 218 215 213 209 200 186 183 188 191 189 164 140 166 193 186 186 199 200 198 210 227 257 179 121 104 78 64
192 191 189 192 195 197 197 196 196 195 194 195 196 198 201 204 207 211 215 217 222 227 230 233 235 233 228 220 215 214 216 219 222 222 222 223 219 216 217 216 211 204 198 197 197 195 188 160 145 162 180 182 187 190 195 203 167 121 123 117 98 75 65
193 191 190 191 193 194 195 194 193 191 191 193 194 195 198 202 205 208 212 215 218 224 228 229 226 225 227 223 217 215 217 220 222 223 222 221 218 214 215 218 219 217 211 211 211 203 201 196 176 154 158 172 180 134 124 128 119 116 117 106 91 78 65
195 195 195 195 195 195 195 194 191 190 190 191 193 195 197 200 204 207 210 212 217 225 226 222 218 218 222 223 220 217 219 221 221 223 223 222 220 220 220 217 215 214 212 216 216 206 205 202 183 155 142 159 159 135 129 127 119 111 107 101 90 76 63
195 197 198 198 198 197 197 196 194 193 192 192 193 195 198 200 203 207 211 215 223 227 222 216 214 215 218 222 224 222 222 222 220 221 221 220 219 219 219 214 208 208 211 212 208 204 206 203 185 163 144 120 125 135 135 137 135 121 105 98 86 73 62
196 198 200 202 201 200 199 198 196 195 194 194 195 196 199 202 205 209 212 218 223 222 217 216 215 214 217 221 223 223 221 219 217 215 214 213 211 208 206 205 202 201 204 203 199 201 202 200 192 175 160 134 106 119 117 130 138 133 129 110 82 73 58
197 198 199 202 202 202 202 199 196 196 195 195 196 198 201 204 208 210 211 215 219 218 219 221 219 218 218 220 220 219 215 212 210 207 206 204 202 200 198 199 200 197 196 198 196 197 196 193 194 185 173 161 150 137 81 128 124 107 134 133 89 71 51
196 198 199 200 201 202 202 200 197 196 197 197 199 201 203 207 209 210 210 213 216 220 225 223 219 219 220 220 219 217 211 207 205 203 203 201 198 197 195 195 198 194 189 190 191 194 198 198 193 190 189 181 171 161 133 156 192 134 116 117 97 70 47
197 199 200 201 202 201 201 200 198 197 198 200 202 204 206 207 207 207 210 215 219 224 224 219 217 218 219 219 216 215 211 207 203 200 201 200 197 194 192 189 191 187 179 178 178 176 180 189 191 189 196 198 190 183 165 145 169 165 120 100 87 67 53
197 198 200 201 202 201 201 201 200 199 200 202 204 205 206 207 206 207 210 215 220 226 224 216 216 217 217 216 213 211 210 207 203 198 196 198 195 193 189 183 181 177 171 169 163 158 158 163 173 178 180 182 186 187 172 149 133 158 135 101 79 72 70
195 197 199 201 202 202 203 202 201 202 203 203 205 206 207 209 209 209 212 212 215 222 223 216 215 215 213 213 212 209 206 203 201 197 193 193 193 191 188 181 177 171 166 165 157 150 147 144 147 152 159 163 155 160 168 152 131 135 125 95 83 83 77
193 195 198 200 202 202 203 203 203 204 205 205 207 207 209 211 211 211 212 211 210 214 215 211 210 211 209 210 210 208 204 199 199 196 191 189 189 190 187 180 173 168 165 163 156 152 148 142 138 131 132 143 136 133 154 146 130 129 122 99 95 93 74
191 194 196 198 201 202 202 203 204 205 206 208 209 210 211 210 209 211 211 210 209 208 208 208 208 208 208 209 207 204 202 199 197 194 190 189 187 186 185 178 170 167 167 164 157 154 152 147 143 134 128 130 126 122 137 143 135 132 125 110 105 95 61
190 193 195 197 199 201 202 203 205 206 208 210 211 211 211 209 208 210 210 209 208 207 207 208 208 208 209 209 206 202 201 200 198 195 191 188 185 182 179 174 170 167 168 167 161 158 156 154 152 145 136 132 125 119 128 143 143 134 123 113 105 86 50
191 193 195 197 198 199 202 204 205 206 208 210 211 209 209 209 208 209 209 210 209 208 209 209 209 209 210 210 208 204 201 200 199 197 193 188 183 180 177 173 170 169 170 168 164 162 161 159 159 154 144 135 127 120 120 135 141 136 133 127 111 85 62
191 193 194 196 197 198 201 204 204 206 208 210 209 207 206 207 208 210 211 211 210 210 210 210 209 209 209 210 210 207 204 201 200 199 196 191 186 182 180 176 171 171 172 168 162 163 164 162 162 159 151 142 135 131 129 129 129 131 136 134 122 98 81
191 193 193 194 195 198 201 203 203 206 209 209 207 205 206 208 209 212 213 213 212 212 212 212 211 211 210 209 209 209 206 202 201 200 197 193 189 186 184 180 175 176 178 173 165 165 168 168 167 164 159 155 151 150 146 138 130 128 131 129 119 104 93
191 191 192 193 195 199 201 203 204 206 208 208 205 205 207 208 210 212 213 214 214 214 214 212 213 213 211 210 209 208 205 202 202 201 198 194 192 191 190 187 182 182 186 185 179 175 175 175 171 168 170 171 171 171 161 147 135 131 129 120 110 103 97
190 190 191 192 195 197 199 202 204 205 205 205 206 207 208 208 210 212 213 215 215 215 215 213 214 213 211 210 209 207 206 204 202 200 197 195 193 194 195 194 190 188 190 191 189 186 186 184 178 173 173 175 179 176 160 145 133 126 124 117 110 109 103
189 189 189 191 192 194 197 199 201 201 202 205 207 208 209 210 210 210 212 214 215 215 215 215 215 214 212 210 208 208 207 205 202 199 194 191 191 192 195 194 189 185 184 185 187 190 194 195 197 193 177 170 171 164 150 141 134 128 125 119 114 112 105
187 187 188 190 192 192 193 195 196 197 201 204 206 206 208 210 211 211 211 212 213 214 215 216 217 215 214 212 209 208 206 203 201 196 191 189 189 190 190 188 184 179 177 178 181 191 197 198 203 198 170 157 160 159 152 146 139 131 124 117 112 104 92
186 187 188 190 191 191 191 192 194 196 198 201 203 204 206 209 211 213 213 212 213 214 215 216 216 215 215 214 211 208 205 203 199 196 194 193 190 187 184 179 175 173 175 180 188 191 189 187 187 181 167 156 155 158 157 152 141 129 122 116 106 90 79
184 186 188 190 189 189 189 191 192 194 195 198 200 202 206 209 211 213 214 213 213 215 216 216 215 214 214 213 213 211 207 203 200 198 198 196 190 185 179 173 174 184 191 197 199 195 188 185 186 186 180 172 164 161 164 164 154 143 140 132 105 85 80
183 185 188 189 188 186 187 190 191 193 196 198 199 201 205 209 211 212 212 213 215 216 217 216 215 214 215 213 212 211 209 205 204 201 199 195 191 187 183 182 190 201 207 203 198 197 195 189 185 183 181 178 172 169 176 183 185 197 209 188 117 97 94
182 184 187 187 186 186 187 189 190 193 196 196 196 200 204 207 210 212 212 214 216 217 217 216 215 214 214 213 211 211 210 208 207 205 200 196 195 194 196 199 203 210 211 203 196 198 198 191 184 182 183 183 181 181 190 200 209 223 228 218 152 118 115
182 183 185 184 184 185 186 187 189 192 195 195 197 201 205 208 209 210 213 215 216 218 218 216 215 214 213 211 210 210 210 210 209 206 202 201 203 205 207 210 214 216 212 203 198 198 196 191 189 190 192 192 190 192 204 216 227 233 227 216 172 131 150
181 182 182 182 182 183 184 186 189 192 193 195 198 202 206 209 210 211 213 215 217 219 219 216 215 214 211 210 210 210 211 212 211 208 205 206 209 212 214 216 220 222 217 207 202 199 198 195 194 195 198 199 198 204 219 232 237 236 230 220 204 172 218
181 181 181 181 181 182 183 186 190 191 191 193 196 201 205 208 210 212 214 216 218 220 218 216 215 213 211 210 209 210 210 211 211 210 209 209 213 217 218 219 223 226 223 215 207 202 200 199 200 204 209 209 207 217 236 247 245 237 230 225 228 247 255
181 181 181 181 181 183 184 187 190 192 192 194 197 202 206 207 210 214 217 218 220 219 218 216 214 212 211 211 210 210 210 210 210 211 211 211 215 220 221 222 226 231 229 222 215 209 206 208 213 219 220 215 216 229 242 245 243 238 233 237 250 260 251
182 182 182 182 183 184 185 188 191 193 194 196 200 204 206 206 210 215 218 220 220 219 219 217 214 212 211 211 211 212 212 211 209 210 212 212 214 219 223 226 230 233 232 228 224 219 216 219 223 225 222 217 226 241 244 238 237 241 244 253 265 256 236
183 183 184 185 185 186 186 187 189 191 193 197 201 204 205 206 209 213 216 218 220 220 220 217 214 212 210 211 213 213 213 211 210 211 213 213 214 217 221 226 232 233 230 229 231 229 224 224 227 228 226 226 236 250 248 235 234 243 252 261 265 250 233
183 185 188 188 187 186 187 188 190 192 193 195 198 200 202 203 207 210 213 217 220 221 220 219 216 212 210 212 214 214 213 213 213 215 216 215 216 220 222 227 234 233 229 228 232 234 230 228 233 237 237 237 245 258 256 243 240 246 256 265 266 252 240
186 188 188 186 183 184 186 189 191 191 191 192 195 197 199 200 203 207 211 216 219 219 219 219 218 214 212 213 214 215 217 218 217 219 218 216 218 221 225 233 239 236 231 230 232 234 234 232 238 243 243 243 247 254 257 253 250 254 261 267 266 255 246
188 188 186 183 181 181 184 187 189 190 189 189 191 193 196 197 198 202 208 213 216 218 217 217 217 216 214 214 215 218 221 221 221 223 223 222 223 225 228 236 244 241 236 234 233 236 239 240 244 248 247 245 246 249 255 257 258 260 265 267 264 256 249
189 187 183 180 177 177 182 185 186 188 188 185 185 189 193 194 195 199 203 206 209 213 214 213 214 216 216 216 217 219 220 221 224 229 230 230 232 232 232 238 248 247 242 237 236 240 245 247 249 251 249 246 246 248 251 256 260 262 263 263 263 259 252
Height
789 792 796 799 801 803 805 806 807 808 809 810 812 813 815 817 818 820 821 823 825 826 827 828 829 830 831 832 833 834 835 836 836 836 837 838 838 839 841 842 843 843 844 845 846 847 849 851 853 854 854 854 855 855 855 855 856 856 857 857 857 856 856
789 791 795 797 800 802 803 805 806 807 808 810 812 813 814 815 817 819 820 822 823 825 826 827 828 828 829 830 831 832 834 835 835 836 836 837 837 838 839 840 842 843 844 844 845 845 846 848 851 852 852 853 854 854 855 855 856 856 857 857 857 856 856
787 790 793 796 798 800 801 803 805 806 808 809 811 812 813 815 816 817 819 820 822 823 824 825 827 828 828 828 829 831 832 833 834 835 836 836 836 837 838 839 840 841 842 843 844 844 845 846 848 850 851 852 853 853 854 855 855 856 856 856 856 856 856
785 788 791 794 796 798 800 802 803 805 807 808 810 811 813 814 815 816 818 819 821 822 823 824 825 827 828 827 828 829 831 832 833 834 835 835 836 836 837 837 838 839 840 841 841 842 843 844 845 848 849 851 852 853 854 855 855 856 856 856 856 856 856
782 785 788 791 793 796 797 800 802 804 805 807 809 810 812 813 814 816 817 819 820 821 822 823 824 826 828 827 827 827 829 830 832 833 833 834 834 835 835 836 837 838 839 839 840 840 841 842 843 846 849 850 852 853 854 854 855 856 856 856 856 856 856
781 783 786 789 791 793 795 797 799 801 803 805 807 808 810 812 813 815 817 818 820 820 821 822 823 824 826 827 826 826 827 829 830 831 832 833 833 834 834 835 836 837 838 838 839 840 841 842 842 845 848 850 851 852 854 854 855 856 856 856 855 856 856
779 782 785 787 789 791 793 795 796 798 800 802 804 807 809 811 813 814 816 818 819 820 820 821 822 823 825 826 826 826 826 828 829 830 831 832 832 833 834 835 836 837 838 838 839 839 840 841 841 843 846 849 850 851 853 854 854 855 856 856 856 856 856
777 780 783 785 788 789 791 793 795 796 798 801 803 806 808 810 812 814 816 817 818 819 819 820 822 822 823 824 825 825 826 827 828 829 831 831 832 833 834 835 835 836 837 838 838 839 840 840 841 841 843 846 850 852 853 853 854 855 855 856 856 855 855
776 779 781 784 786 788 790 792 794 796 798 801 803 805 807 809 811 813 814 816 816 817 818 819 820 821 822 822 824 825 825 826 828 829 830 831 832 833 834 835 835 836 837 837 838 839 839 840 841 841 841 842 845 850 853 853 854 854 855 855 855 855 854
774 777 779 782 785 787 789 791 794 796 798 800 802 804 806 808 810 812 813 814 815 816 817 818 819 820 821 822 823 824 825 826 828 829 830 831 832 833 834 834 835 836 836 837 838 838 839 839 840 840 841 840 841 845 849 852 853 854 854 855 855 854 853
772 775 778 781 783 786 788 791 793 795 797 799 801 803 805 807 809 811 812 813 814 815 816 817 818 819 820 821 823 824 825 826 827 829 830 831 832 833 834 834 835 836 836 837 838 838 839 839 840 840 840 840 841 842 844 848 852 853 853 854 854 853 853
770 774 777 780 782 784 786 789 791 794 796 798 800 801 804 805 807 809 811 812 813 814 815 817 817 818 819 821 822 824 825 826 827 828 830 831 832 833 833 834 835 836 836 837 838 838 839 839 840 840 839 840 840 841 842 845 849 852 853 853 853 853 852
769 772 775 778 780 782 785 787 789 792 794 796 798 800 802 804 806 808 809 811 813 814 815 816 817 818 819 821 822 824 825 827 828 828 829 831 832 833 833 834 835 836 836 837 838 839 839 840 840 840 840 840 840 841 842 843 847 850 852 852 852 852 852
767 771 774 776 779 781 784 786 788 791 793 795 797 799 801 803 804 806 808 810 811 813 814 815 817 818 819 821 822 824 825 826 828 828 829 830 832 833 834 834 835 836 837 837 838 839 840 840 841 840 840 840 839 840 841 843 846 849 851 851 852 851 851
765 769 772 775 777 780 782 785 787 790 792 794 796 798 800 801 804 805 807 809 810 812 813 815 816 817 819 820 821 823 825 826 827 828 829 830 832 833 833 834 835 836 837 838 838 839 840 841 841 841 841 840 840 840 841 843 845 848 850 851 851 851 850
763 767 770 773 776 778 781 783 786 788 791 793 795 797 799 800 803 804 806 808 809 811 813 814 815 817 818 820 821 823 824 825 826 827 828 830 831 832 833 834 834 835 836 838 838 839 840 841 841 841 841 841 841 841 842 843 845 847 849 850 850 850 849
761 764 768 771 774 776 779 782 784 787 789 791 793 796 798 800 802 803 805 807 808 810 811 813 815 816 818 819 821 822 823 825 826 827 828 830 831 832 832 833 834 835 836 837 838 839 840 841 841 841 842 842 842 842 843 844 845 846 847 848 849 849 849
759 762 765 769 772 774 777 780 783 785 788 790 792 794 797 798 800 802 803 805 807 809 810 812 814 815 817 819 820 821 823 824 825 827 828 829 830 831 832 833 834 835 836 837 838 839 840 840 841 841 842 842 842 843 843 844 845 845 846 847 848 848 848
756 760 763 766 770 772 775 778 781 784 786 788 791 793 795 797 799 801 802 804 806 808 809 811 813 815 816 818 819 821 822 824 825 827 828 829 831 832 832 833 834 835 836 837 838 839 840 840 841 841 842 842 843 843 843 844 844 845 845 846 847 848 848
754 758 761 764 767 770 774 777 779 782 785 787 789 791 793 796 797 799 801 803 805 807 808 810 812 814 815 817 818 820 822 824 825 827 828 829 831 832 833 834 834 835 836 837 837 838 839 840 841 841 842 842 843 843 843 844 844 845 845 846 847 847 848
752 756 760 763 765 768 772 775 778 781 783 785 788 790 792 794 796 798 800 802 804 805 807 809 811 812 814 816 818 820 821 823 825 826 828 830 831 832 833 834 834 835 836 837 838 838 839 840 841 842 842 842 843 843 843 844 844 844 845 845 846 846 846
751 755 758 761 764 766 770 773 776 779 781 783 786 788 791 793 795 797 798 800 802 804 806 807 809 811 813 815 817 819 821 823 824 826 828 830 831 832 833 834 834 835 836 837 838 839 840 840 841 842 842 842 843 843 843 844 843 843 844 844 844 844 844
749 753 755 758 762 765 768 771 774 777 779 782 784 787 790 792 793 795 797 799 801 802 804 806 808 810 813 815 817 819 821 823 825 826 828 829 831 832 833 833 834 835 836 837 838 839 840 841 841 842 841 841 842 842 843 843 843 842 843 843 843 843 842
746 750 753 756 759 763 766 769 772 775 777 780 783 785 788 790 792 793 795 797 799 801 802 805 807 810 813 815 817 818 820 822 824 825 827 828 829 831 832 833 834 835 836 837 837 837 837 837 839 840 840 840 841 841 842 843 843 843 843 842 842 841 840
743 747 750 754 757 761 764 768 770 773 775 778 781 784 786 788 790 792 794 796 797 799 801 804 807 810 812 814 815 817 819 820 822 824 825 826 828 830 831 832 833 834 834 833 833 832 831 831 832 834 836 838 838 839 840 842 843 843 842 842 840 839 838
741 744 748 751 755 759 762 765 768 771 774 777 779 782 785 787 789 791 792 794 796 798 801 803 806 808 810 811 813 815 817 819 820 822 824 825 827 828 829 829 829 830 830 830 830 831 830 829 829 831 834 835 836 836 838 840 840 841 841 840 838 837 837
738 742 746 749 753 756 760 763 766 769 772 775 778 780 783 785 787 789 791 793 795 797 799 802 804 806 808 810 812 814 816 817 819 821 822 823 824 825 825 825 826 826 827 828 829 829 830 830 831 832 834 834 834 835 836 837 838 839 839 839 837 836 836
736 740 744 747 751 754 757 761 764 767 770 773 775 778 781 783 785 787 789 791 793 795 798 800 802 804 806 809 811 813 815 817 818 819 821 821 822 822 824 825 825 826 826 826 827 827 828 829 830 831 833 834 834 834 835 836 837 837 838 837 836 835 835
734 738 742 745 749 752 755 759 762 765 768 771 774 777 779 781 783 785 788 790 792 794 796 798 801 803 805 807 810 812 814 815 816 818 819 820 820 822 824 825 825 825 825 825 826 827 828 828 829 831 832 833 833 834 834 835 836 837 837 836 835 834 834
732 736 739 743 747 750 753 756 760 763 766 769 772 775 777 779 781 784 786 788 790 791 794 797 799 801 804 806 808 810 812 813 814 816 817 819 820 821 823 824 824 825 825 825 826 827 828 829 829 830 831 832 832 833 834 835 835 836 835 835 834 834 833
729 733 737 740 744 747 751 754 758 761 764 767 770 773 775 777 780 782 784 786 787 789 792 795 797 800 802 805 806 808 810 811 812 814 816 818 819 821 822 822 823 824 825 826 827 828 829 829 829 830 830 831 831 832 833 834 835 835 835 834 833 833 833
727 731 735 738 741 744 748 751 755 758 761 764 767 770 773 775 778 780 782 784 786 788 790 793 796 798 800 803 804 806 808 809 811 813 815 817 818 820 821 822 822 823 824 825 827 828 829 829 829 829 830 829 829 830 831 833 834 834 834 833 833 832 832
725 728 732 736 738 741 745 749 752 756 759 762 765 767 770 772 775 777 779 782 784 786 788 791 794 796 798 800 802 804 806 808 809 811 813 815 816 818 819 820 821 822 823 824 826 827 828 828 828 828 828 828 828 828 830 831 832 833 833 833 832 832 832
723 726 730 733 736 740 743 746 749 752 755 759 762 764 767 770 773 775 777 780 782 784 786 789 791 794 796 798 800 802 804 805 807 810 811 813 815 816 817 818 819 820 821 823 825 826 826 826 826 827 827 826 827 828 829 829 830 831 831 831 831 831 831
722 725 728 731 735 739 742 744 747 750 753 757 760 763 765 768 771 773 776 778 780 782 785 788 790 792 794 796 798 800 802 804 806 808 810 811 812 813 814 815 817 818 819 821 823 824 824 824 825 825 825 825 826 827 828 828 828 829 829 830 830 830 830
723 725 728 730 733 737 741 744 747 749 752 755 759 762 764 766 769 772 774 776 779 781 784 786 789 791 793 795 796 798 800 802 804 806 807 809 810 811 812 813 815 816 817 819 820 822 822 823 823 823 824 824 825 826 826 827 827 827 827 828 828 828 828
722 725 727 730 733 737 741 744 747 750 752 755 758 762 764 765 767 770 772 775 777 780 782 784 787 789 791 793 795 797 799 801 803 804 805 806 808 809 810 812 813 815 815 817 818 820 820 821 821 822 822 823 824 825 825 825 826 826 825 826 826 826 826